Home   Weather   Namur   Past weeks

Flag for Belgium Past Weather in Namur, Belgium — Yesterday and Last 2 Weeks

Now
61 °F

Passing clouds.


Feels Like: 61 °F
Forecast: 50 / 62 °F
Wind: 8 mph from Southwest

Location: Charleroi / Gosselies

Current Time: Sep 30, 2016 at 1:49:20 PM

Latest Report: Sep 30, 2016 at 12:50 PM


Visibility: N/A

Pressure: 30.01 "Hg

Humidity: 68%

Dew Point: 50 °F

Location of NamurLocation

Past Weather in Namur — Graph

°F

Namur Temperature Yesterday

Maximum temperature yesterday: 68 °F (at 2:20 PM)
Minimum temperature yesterday: 55 °F (at 10:20 PM)
Average temperature yesterday: 61 °F

High & Low Weather Summary for the Past Weeks

 TemperatureHumidityPressure
High77 °F (Sep 15, 1:20 PM)94% (Sep 15, 11:20 PM)30.33 "Hg (Sep 15, 11:20 PM)
Low46 °F (Sep 27, 5:20 AM)31% (Sep 27, 2:50 PM)29.83 "Hg (Sep 15, 12:20 PM)
Average60 °F73%30.12 "Hg
* Reported Sep 15 12:20 PM — Sep 30 12:20 PM, Namur, Weather by CustomWeather, © 2016

Note: Actual official high and low records may vary slightly from our data, if they occured in-between our weather recording intervals... More about our weather records

Advertising

Namur Weather History for the Previous 24 Hours

Scroll right to see more
 ConditionsComfort  
Time TempWeatherWind HumidityBarometerVisibility
12:20 PM
Fri, Sep 30
59 °FScattered clouds.9 mph72%30.01 "HgN/A
11:50 AM59 °FScattered clouds.8 mph77%30.01 "HgN/A
11:20 AM57 °FPartly sunny.9 mph82%30.01 "HgN/A
10:50 AM57 °FPartly sunny.10 mph82%30.01 "HgN/A
10:20 AM55 °FPartly sunny.10 mph88%29.98 "HgN/A
9:50 AM55 °FBroken clouds.10 mph88%29.98 "HgN/A
9:20 AM55 °FPartly sunny.9 mph88%29.98 "HgN/A
8:50 AM55 °FPartly sunny.10 mph88%29.98 "HgN/A
8:20 AM55 °FPartly sunny.9 mph88%29.98 "HgN/A
7:50 AM55 °FScattered clouds.8 mph88%29.98 "HgN/A
7:20 AM55 °FPassing clouds.8 mph88%29.95 "HgN/A
6:50 AM55 °FPassing clouds.9 mph88%29.95 "HgN/A
6:20 AM55 °FPassing clouds.8 mph88%29.95 "HgN/A
5:50 AM55 °FPassing clouds.7 mph88%29.95 "HgN/A
5:20 AM55 °FPassing clouds.9 mph94%29.95 "HgN/A
4:50 AM55 °FPassing clouds.8 mph94%29.95 "HgN/A
4:20 AM55 °FPassing clouds.8 mph94%29.98 "HgN/A
3:50 AM55 °FPassing clouds.8 mph94%29.98 "HgN/A
3:20 AM55 °FPassing clouds.7 mph94%29.98 "HgN/A
2:50 AM55 °FPassing clouds.7 mph94%29.98 "HgN/A
2:20 AM57 °FPassing clouds.8 mph88%29.98 "HgN/A
1:50 AM57 °FPassing clouds.8 mph88%29.98 "HgN/A
1:20 AM57 °FPassing clouds.9 mph88%30.01 "HgN/A
12:50 AM57 °FPassing clouds.9 mph88%30.01 "HgN/A
12:20 AM55 °FPassing clouds.8 mph94%30.01 "HgN/A
11:50 PM
Thu, Sep 29
55 °FPartly cloudy.8 mph94%30.01 "HgN/A
11:20 PM55 °FPartly cloudy.7 mph94%30.01 "HgN/A
10:50 PM55 °FLight rain. Partly cloudy.12 mph94%30.01 "HgN/A
10:20 PM55 °FLight rain. Partly cloudy.12 mph94%30.01 "Hg2 mi
9:50 PM57 °FRain. Partly cloudy.8 mph94%30.01 "Hg1 mi
9:20 PM59 °FRain. Passing clouds.10 mph94%30.01 "Hg1 mi
8:50 PM64 °FPassing clouds.10 mph68%29.98 "HgN/A
8:20 PM64 °FPassing clouds.12 mph68%30.01 "HgN/A
7:50 PM64 °FPassing clouds.12 mph68%30.01 "HgN/A
7:20 PM64 °FPartly sunny.12 mph68%30.01 "HgN/A
6:50 PM64 °FPartly sunny.14 mph68%30.01 "HgN/A
6:20 PM64 °FBroken clouds.14 mph68%30.01 "HgN/A
5:50 PM64 °FBroken clouds.15 mph73%30.01 "HgN/A
5:20 PM64 °FDrizzle. Partly sunny.17 mph73%30.01 "HgN/A
4:50 PM64 °FLight rain. Partly sunny.21 mph73%30.01 "HgN/A
4:20 PM66 °FPartly sunny.17 mph64%30.01 "HgN/A
3:50 PM66 °FPartly sunny.17 mph64%30.01 "HgN/A
3:20 PM66 °FPartly sunny.15 mph64%30.04 "HgN/A
2:50 PM66 °FPartly sunny.16 mph64%30.04 "HgN/A
2:20 PM68 °FPartly sunny.17 mph56%30.04 "HgN/A
1:50 PM64 °FPartly sunny.16 mph64%30.07 "HgN/A
1:20 PM64 °FPartly sunny.21 mph64%30.07 "HgN/A
Weather by CustomWeather, © 2016

See weather overviewHow to use our weather pages